User: anonymous   Login
Location: Gombori
(14.9797°N, 2.9419°W)
Time: 04:45:41
(UTC+00:00)
Language:

Cosmos-2242 - Orbit

View from above orbital plane
View from above orbital plane
View from above satellite
View from above satellite

Ground track
Ground track

The orbit data is extracted from the following two-line orbital elements,

1 22626U 93024A   21290.25437666  .00000336  00000-0  33656-4 0  9998
2 22626  82.5237 348.7712 0017346 263.6113  96.3129 14.88193867541557
Epoch (UTC): 17 October 2021 06:06:18
Eccentricity: 0.0017346
inclination: 82.5237°
perigee height: 591 km
apogee height: 615 km
right ascension of ascending node: 348.7712°
argument of perigee: 263.6113°
revolutions per day: 14.88193867
mean anomaly at epoch: 96.3129°
orbit number at epoch: 54155

The dashed part of the orbit path shows where the satellite is in the earth's shadow,  

DLR